• In Deutschland
  • Länderverzeichnis
  • Für 7 Tage
  • Wassertemperatur
  • Satellitenkarten
  • Wetterkarte
  • Widgets
  • user-avatar
    Anmelden

    Stündliche Wetter Verhniy Cipikan

    Heute, 23 April, Montag

    Zeit Temperatur Niederschläge Wind Luftdruck Luftfeuchtigkeit
    00:00 -1°C° 0 mm 2 m/S 662 mmHg 69%
    01:00 -1°C° 0 mm 2 m/S 662 mmHg 70%
    02:00 -1°C° 0 mm 2 m/S 662 mmHg 71%
    03:00 -2°C° 0 mm 2 m/S 661 mmHg 73%
    04:00 -2°C° 0 mm 2 m/S 661 mmHg 74%
    05:00 -2°C° 0 mm 2 m/S 661 mmHg 75%
    06:00 -1°C° 0 mm 2 m/S 661 mmHg 74%
    07:00 +2°C° 0 mm 2 m/S 661 mmHg 73%
    08:00 +3°C° 0 mm 2 m/S 661 mmHg 85%
    09:00 +4°C° 0 mm 2 m/S 661 mmHg 85%
    10:00 +4°C° 0 mm 3 m/S 661 mmHg 85%
    11:00 +5°C° 0 mm 3 m/S 660 mmHg 85%
    12:00 +7°C° 0 mm 3 m/S 660 mmHg 83%
    13:00 +7°C° 0 mm 3 m/S 660 mmHg 80%
    14:00 +7°C° 0 mm 4 m/S 660 mmHg 76%
    15:00 +7°C° 0 mm 4 m/S 660 mmHg 72%
    16:00 +8°C° 0 mm 4 m/S 660 mmHg 68%
    17:00 +8°C° 0 mm 4 m/S 660 mmHg 64%
    18:00 +7°C° 0 mm 3 m/S 660 mmHg 66%
    19:00 +4°C° 0 mm 3 m/S 660 mmHg 68%
    20:00 +4°C° 0 mm 4 m/S 659 mmHg 66%
    21:00 +3°C° 0 mm 3 m/S 659 mmHg 68%
    22:00 +2°C° 0 mm 3 m/S 659 mmHg 70%
    23:00 +2°C° 0 mm 2 m/S 659 mmHg 72%

    Morgen, 24 April, Dienstag

    Zeit Temperatur Niederschläge Wind Luftdruck Luftfeuchtigkeit
    00:00 +2°C° 0 mm 2 m/S 659 mmHg 73%
    01:00 +2°C° 0 mm 2 m/S 659 mmHg 75%
    02:00 +1°C° 0 mm 2 m/S 659 mmHg 76%
    03:00 +1°C° 0 mm 2 m/S 659 mmHg 78%
    04:00 +1°C° 0 mm 2 m/S 659 mmHg 79%
    05:00 +1°C° 0 mm 1 m/S 659 mmHg 81%
    06:00 +2°C° 0 mm 2 m/S 659 mmHg 80%
    07:00 +3°C° 0 mm 2 m/S 659 mmHg 78%
    08:00 +4°C° 0 mm 2 m/S 659 mmHg 77%
    09:00 +6°C° 0 mm 2 m/S 659 mmHg 72%
    10:00 +8°C° 0 mm 3 m/S 659 mmHg 67%
    11:00 +8°C° 0 mm 4 m/S 658 mmHg 62%
    12:00 +10°C° 0 mm 5 m/S 658 mmHg 56%
    13:00 +11°C° 0 mm 6 m/S 657 mmHg 50%
    14:00 +12°C° 0 mm 7 m/S 657 mmHg 44%
    15:00 +13°C° 0 mm 6 m/S 656 mmHg 45%
    16:00 +13°C° 0 mm 6 m/S 655 mmHg 45%
    17:00 +13°C° 0 mm 5 m/S 655 mmHg 46%
    18:00 +11°C° 0 mm 4 m/S 654 mmHg 51%
    19:00 +9°C° 0 mm 3 m/S 654 mmHg 56%
    20:00 +7°C° 0 mm 2 m/S 653 mmHg 61%
    21:00 +6°C° 0 mm 2 m/S 653 mmHg 61%
    22:00 +6°C° 0 mm 2 m/S 653 mmHg 61%
    23:00 +6°C° 0 mm 2 m/S 653 mmHg 61%

    übermorgen, 25 April, Mittwoch

    Zeit Temperatur Niederschläge Wind Luftdruck Luftfeuchtigkeit
    00:00 +5°C° 0 mm 2 m/S 653 mmHg 62%
    01:00 +5°C° 0 mm 2 m/S 653 mmHg 64%
    02:00 +4°C° 0 mm 2 m/S 653 mmHg 65%
    03:00 +3°C° 0 mm 2 m/S 654 mmHg 71%
    04:00 +2°C° 0 mm 3 m/S 654 mmHg 76%
    05:00 +1°C° 0 mm 3 m/S 654 mmHg 81%
    06:00 +1°C° 0 mm 3 m/S 655 mmHg 79%
    07:00 +2°C° 0 mm 3 m/S 656 mmHg 77%
    08:00 +1°C° 0 mm 4 m/S 657 mmHg 75%
    09:00 +3°C° 0 mm 4 m/S 658 mmHg 68%
    10:00 +3°C° 0 mm 4 m/S 658 mmHg 61%
    11:00 +4°C° 0 mm 4 m/S 659 mmHg 55%
    12:00 +4°C° 0 mm 4 m/S 659 mmHg 49%
    13:00 +5°C° 0 mm 4 m/S 660 mmHg 43%
    14:00 +5°C° 0 mm 4 m/S 660 mmHg 37%
    15:00 +5°C° 0 mm 4 m/S 660 mmHg 36%
    16:00 +5°C° 0 mm 3 m/S 660 mmHg 34%
    17:00 +5°C° 0 mm 3 m/S 660 mmHg 33%
    18:00 +3°C° 0 mm 3 m/S 660 mmHg 39%
    19:00 +3°C° 0 mm 2 m/S 660 mmHg 44%
    20:00 +2°C° 0 mm 1 m/S 660 mmHg 49%
    21:00 +2°C° 0 mm 1 m/S 660 mmHg 50%
    22:00 +1°C° 0 mm 1 m/S 661 mmHg 51%
    23:00 +1°C° 0 mm 1 m/S 661 mmHg 52%

    26 April, Donnerstag

    Zeit Temperatur Niederschläge Wind Luftdruck Luftfeuchtigkeit
    00:00 -1°C° 0 mm 0 m/S 661 mmHg 51%
    01:00 -1°C° 0 mm 0 m/S 661 mmHg 51%
    02:00 -1°C° 0 mm 0 m/S 661 mmHg 50%
    03:00 0°C° 0 mm 1 m/S 661 mmHg 50%
    04:00 0°C° 0 mm 1 m/S 661 mmHg 49%
    05:00 0°C° 0 mm 1 m/S 661 mmHg 49%
    06:00 +2°C° 0 mm 1 m/S 661 mmHg 45%
    07:00 +3°C° 0 mm 1 m/S 661 mmHg 42%
    08:00 +3°C° 0 mm 2 m/S 661 mmHg 39%
    09:00 +5°C° 0 mm 2 m/S 661 mmHg 37%
    10:00 +7°C° 0 mm 2 m/S 661 mmHg 35%
    11:00 +9°C° 0 mm 3 m/S 660 mmHg 33%
    12:00 +10°C° 0 mm 3 m/S 660 mmHg 33%
    13:00 +11°C° 0 mm 4 m/S 660 mmHg 33%
    14:00 +12°C° 0 mm 4 m/S 659 mmHg 33%
    15:00 +12°C° 0 mm 4 m/S 659 mmHg 36%
    16:00 +12°C° 0 mm 4 m/S 659 mmHg 40%
    17:00 +12°C° 0 mm 4 m/S 659 mmHg 43%
    18:00 +10°C° 0 mm 3 m/S 658 mmHg 50%
    19:00 +8°C° 0 mm 3 m/S 658 mmHg 56%
    20:00 +7°C° 0 mm 2 m/S 657 mmHg 63%
    21:00 +6°C° 0 mm 2 m/S 657 mmHg 66%
    22:00 +5°C° 0 mm 2 m/S 657 mmHg 69%
    23:00 +5°C° 0 mm 2 m/S 657 mmHg 71%

    27 April, Freitag

    Zeit Temperatur Niederschläge Wind Luftdruck Luftfeuchtigkeit
    00:00 +5°C° 0 mm 1 m/S 657 mmHg 72%
    01:00 +5°C° 0 mm 1 m/S 657 mmHg 72%
    02:00 +5°C° 0 mm 1 m/S 656 mmHg 73%
    03:00 +5°C° 0 mm 1 m/S 656 mmHg 74%
    04:00 +5°C° 0 mm 1 m/S 656 mmHg 75%
    05:00 +5°C° 0 mm 1 m/S 656 mmHg 76%
    06:00 +6°C° 0 mm 1 m/S 656 mmHg 70%
    07:00 +6°C° 0 mm 2 m/S 656 mmHg 64%
    08:00 +7°C° 0 mm 2 m/S 656 mmHg 59%
    09:00 +9°C° 0 mm 3 m/S 656 mmHg 53%
    10:00 +9°C° 0 mm 5 m/S 656 mmHg 47%
    11:00 +10°C° 0 mm 6 m/S 657 mmHg 41%
    12:00 +10°C° 0 mm 6 m/S 657 mmHg 40%
    13:00 +10°C° 0 mm 7 m/S 657 mmHg 40%
    14:00 +11°C° 0 mm 8 m/S 657 mmHg 39%
    15:00 +10°C° 0 mm 7 m/S 657 mmHg 40%
    16:00 +9°C° 0 mm 7 m/S 657 mmHg 41%
    17:00 +8°C° 0 mm 6 m/S 657 mmHg 42%
    18:00 +7°C° 0 mm 5 m/S 657 mmHg 47%
    19:00 +5°C° 0 mm 4 m/S 657 mmHg 52%
    20:00 +4°C° 0 mm 3 m/S 657 mmHg 58%
    21:00 +3°C° 0 mm 3 m/S 657 mmHg 60%
    22:00 +3°C° 0 mm 2 m/S 658 mmHg 63%
    23:00 +2°C° 0 mm 2 m/S 658 mmHg 66%

    28 April, Samstag

    Zeit Temperatur Niederschläge Wind Luftdruck Luftfeuchtigkeit
    00:00 +1°C° 0 mm 2 m/S 658 mmHg 66%
    01:00 +1°C° 0 mm 2 m/S 658 mmHg 66%
    02:00 +1°C° 0 mm 1 m/S 658 mmHg 66%
    03:00 +1°C° 0 mm 1 m/S 658 mmHg 66%
    04:00 +1°C° 0 mm 1 m/S 658 mmHg 66%
    05:00 +1°C° 0 mm 1 m/S 658 mmHg 66%
    06:00 +1°C° 0 mm 2 m/S 658 mmHg 61%
    07:00 +2°C° 0 mm 2 m/S 659 mmHg 57%
    08:00 +2°C° 0 mm 3 m/S 659 mmHg 52%
    09:00 +2°C° 0,1 mm 3 m/S 659 mmHg 49%
    10:00 +3°C° 0,1 mm 4 m/S 659 mmHg 46%
    11:00 +2°C° 0,1 mm 5 m/S 659 mmHg 43%
    12:00 +3°C° 0,1 mm 5 m/S 658 mmHg 40%
    13:00 +3°C° 0,1 mm 6 m/S 658 mmHg 38%
    14:00 +3°C° 0,1 mm 6 m/S 658 mmHg 36%
    15:00 +3°C° 0,1 mm 6 m/S 658 mmHg 38%
    16:00 +3°C° 0,1 mm 6 m/S 658 mmHg 39%
    17:00 +2°C° 0,1 mm 7 m/S 658 mmHg 41%
    18:00 +1°C° 0,1 mm 5 m/S 659 mmHg 46%
    19:00 0°C° 0,1 mm 4 m/S 659 mmHg 51%
    20:00 0°C° 0,1 mm 3 m/S 659 mmHg 56%
    21:00 -1°C° 0 mm 3 m/S 659 mmHg 59%
    22:00 -2°C° 0 mm 2 m/S 659 mmHg 62%
    23:00 -2°C° 0 mm 2 m/S 660 mmHg 65%
    Mehr zeigen